Rbgn^[z[y[W
メイン
   新天体発見情報
     Comet C/2017 D2 (Barros)
投稿するにはまず登録を

フラット表示 前のトピック | 次のトピック
投稿者 スレッド
佐藤裕久
投稿日時: 2017-3-8 18:05
モデレータ
登録日: 2005-6-12
居住地: 日本
投稿: 2505
オンライン
Comet C/2017 D2 (Barros)

C. Jacques (Belo Horizonte, MG, ブラジル) の通報によると、J. Barrosは、2月23日、Oliveiraにある
SONEAR 天文台の0.45-m f/2.9 反射望遠鏡で得たCCD画像から彗星を発見した。
この彗星は集光ある10"のコマが見える。
2月23.8日UT、Jacques他がSiding SpringにあるiTelescopeの0.70-m f/6.6 アストログラフで、60秒の15
スタックのフォローアップ観測は、集光した11" のコマが見え、r光度は16.5-18.1等であった。
小惑星センターのPCCP webpageに公表後、A. C. GilmoreとP. M. Kilmartin (Mount John 天文台, 1.0-m 
f/7.7 反射望遠鏡)や佐藤英貴氏(東京都文京区, iTelescope天文台, 0.51-m f/6.8 アストログラフ+輝度
フィルター, Siding Spring, 遠隔操作)らCCD位置観測者によって彗星状と観測された。

発見位置は次のとおり、

     2017 UT             R.A. (2000) Decl.       Mag.   Observer
     Feb. 23.30751   19 02 43.85   -48 11 58.0   17.4   Jacques
          23.31674   19 02 45.21   -48 11 57.3   17.4     "
          23.32596   19 02 46.58   -48 11 56.5   17.4     "

暫定放物線軌道要素と位置推算表は次のとおり、

Orbital elements:
    C/2017 D2 (Barros)
T 2017 July 12.23273 TT                                 MPCW
q   2.5041249            (2000.0)            P               Q
                   Peri.  333.31961     +0.59666933     +0.76228631
                   Node   331.09421     -0.61188032     +0.22994048
e   1.0            Incl.   31.25685     -0.51921883     +0.60501814
From 36 observations 2017 Feb. 23-28.

Ephemeris:
    C/2017 D2 (Barros)
Date    TT    R. A. (2000) Decl.     Delta      r     Elong.  Phase   m1
2017 01 30    18 01 44.9 -48 22 23   3.6548  3.0506    45.8    13.4  18.7
...
2017 02 14    18 39 31.0 -48 23 44   3.4561  2.9645    52.8    15.4  18.4
...
2017 02 22    18 59 29.2 -48 14 11   3.3470  2.9208    56.5    16.4  18.3
...
2017 02 28    19 14 16.1 -48 02 28   3.2640  2.8890    59.4    17.2  18.2
2017 03 01    19 16 42.7 -48 00 08   3.2501  2.8837    59.9    17.3  18.2
2017 03 02    19 19 08.7 -47 57 43   3.2361  2.8786    60.4    17.4  18.1
...
2017 03 08    19 33 35.5 -47 40 59   3.1522  2.8480    63.3    18.1  18.0
...
2017 03 16    19 52 20.8 -47 13 10   3.0397  2.8088    67.2    19.1  17.9
...
2017 03 31    20 25 31.9 -46 06 17   2.8280  2.7405    74.8    20.6  17.6

(CBET 4366、MPEC 2017-E05)
フラット表示 前のトピック | 次のトピック

題名 投稿者 日時
 » Comet C/2017 D2 (Barros) 佐藤裕久 2017-3-8 18:05

投稿するにはまず登録を
 
© 1999 Tsutomu Seki.